| time (UTC) | temp F | wind direction | speed knots | gust knots | rain 1hr in | rain 24hr in | rain mn in | humidity % | barometer mb |
| 20260905202410 | 81 | 311 | 0.0 | 1.7 | 0.00 | 0.01 | 0.00 | 72 | 1010.6 |
| 20260905201410 | 81 | 261 | 0.0 | 0.0 | 0.00 | 0.01 | 0.00 | 73 | 1010.6 |
| 20260905200410 | 80 | 360 | 0.0 | 0.9 | 0.00 | 0.01 | 0.00 | 72 | 1010.7 |
| 20260905194410 | 80 | 19 | 0.0 | 0.0 | 0.00 | 0.01 | 0.00 | 78 | 1010.6 |
| 20260905193410 | 79 | 250 | 0.0 | 1.7 | 0.00 | 0.01 | 0.00 | 78 | 1010.5 |
| 20260905192410 | 79 | 225 | 0.0 | 0.0 | 0.00 | 0.01 | 0.00 | 76 | 1010.4 |
| 20260905191410 | 80 | 225 | 0.0 | 0.0 | 0.00 | 0.01 | 0.00 | 77 | 1010.6 |
| 20260905190410 | 79 | 36 | 0.0 | 0.0 | 0.00 | 0.01 | 0.00 | 77 | 1010.6 |
| 20260905185410 | 78 | 70 | 0.0 | 0.0 | 0.00 | 0.01 | 0.00 | 79 | 1010.3 |
| 20260905184410 | 78 | 70 | 0.0 | 0.0 | 0.00 | 0.01 | 0.00 | 80 | 1010.3 |
| 20260905182440 | 78 | 320 | 0.0 | 0.0 | 0.00 | 0.01 | 0.00 | 82 | 1011.2 |
| 20260905181410 | 78 | 320 | 0.0 | 0.0 | 0.00 | 0.01 | 0.00 | 84 | 1011.4 |
| 20260905180410 | 78 | 318 | 0.0 | 0.0 | 0.00 | 0.01 | 0.00 | 82 | 1012.1 |
| 20260905175410 | 78 | 318 | 0.0 | 0.0 | 0.00 | 0.01 | 0.00 | 82 | 1012.2 |
| 20260905174410 | 79 | 318 | 0.0 | 0.0 | 0.00 | 0.01 | 0.00 | 80 | 1012.4 |
| 20260905173410 | 78 | 318 | 0.0 | 0.0 | 0.00 | 0.01 | 0.00 | 81 | 1012.4 |
| 20260905172410 | 79 | 318 | 0.0 | 0.0 | 0.00 | 0.01 | 0.00 | 81 | 1012.3 |
| 20260905171410 | 80 | 318 | 0.0 | 0.0 | 0.00 | 0.01 | 0.00 | 79 | 1012.4 |
| 20260905170440 | 80 | 306 | 0.0 | 0.9 | 0.00 | 0.01 | 0.00 | 77 | 1012.3 |
| 20260905165410 | 80 | 350 | 0.0 | 0.9 | 0.00 | 0.01 | 0.00 | 77 | 1012.4 |
| 20260905164510 | 80 | 292 | 0.9 | 2.6 | 0.00 | 0.01 | 0.00 | 77 | 1012.3 |
| 20260905162410 | 80 | 265 | 0.0 | 2.6 | 0.00 | 0.01 | 0.00 | 79 | 1012.0 |
| 20260905160410 | 80 | 279 | 0.0 | 2.6 | 0.00 | 0.01 | 0.00 | 80 | 1012.3 |
| 20260905155410 | 80 | 296 | 0.9 | 1.7 | 0.00 | 0.01 | 0.00 | 81 | 1012.2 |
| 20260905154410 | 79 | 67 | 0.0 | 0.0 | 0.00 | 0.01 | 0.00 | 82 | 1012.2 |
| 20260905153410 | 80 | 301 | 0.0 | 1.7 | 0.00 | 0.01 | 0.00 | 83 | 1012.2 |
| 20260905152410 | 80 | 64 | 0.9 | 2.6 | 0.00 | 0.01 | 0.00 | 82 | 1012.3 |
| 20260905151410 | 80 | 286 | 1.7 | 1.7 | 0.00 | 0.01 | 0.00 | 83 | 1012.3 |
| 20260905150410 | 80 | 286 | 0.9 | 4.3 | 0.00 | 0.01 | 0.00 | 82 | 1012.3 |
| 20260905144410 | 79 | 276 | 2.6 | 2.6 | 0.00 | 0.01 | 0.00 | 82 | 1012.3 |
| 20260905143410 | 80 | 113 | 0.0 | 1.7 | 0.00 | 0.01 | 0.00 | 81 | 1012.1 |
| 20260905142410 | 80 | 327 | 2.6 | 2.6 | 0.00 | 0.01 | 0.00 | 83 | 1011.8 |
| 20260905140440 | 79 | 146 | 0.0 | 4.3 | 0.00 | 0.01 | 0.00 | 82 | 1011.8 |
| 20260905135410 | 79 | 282 | 0.0 | 0.0 | 0.00 | 0.01 | 0.00 | 83 | 1011.9 |
| 20260905134410 | 79 | 267 | 1.7 | 1.7 | 0.00 | 0.01 | 0.00 | 82 | 1011.9 |
| 20260905133410 | 78 | 242 | 0.0 | 0.0 | 0.00 | 0.01 | 0.00 | 84 | 1012.0 |
| 20260905132410 | 78 | 242 | 0.0 | 0.0 | 0.00 | 0.01 | 0.00 | 84 | 1011.8 |
| 20260905131410 | 78 | 186 | 0.0 | 0.0 | 0.00 | 0.01 | 0.00 | 83 | 1011.7 |
| 20260905130410 | 78 | 259 | 0.0 | 2.6 | 0.00 | 0.01 | 0.00 | 83 | 1011.7 |
| 20260905124410 | 77 | 284 | 0.0 | 0.0 | 0.00 | 0.01 | 0.00 | 84 | 1011.7 |
| 20260905123410 | 77 | 316 | 0.9 | 0.9 | 0.00 | 0.01 | 0.00 | 85 | 1011.7 |
| 20260905122410 | 77 | 5 | 0.0 | 0.0 | 0.00 | 0.01 | 0.00 | 85 | 1011.7 |
| 20260905121410 | 76 | 28 | 0.9 | 0.9 | 0.00 | 0.01 | 0.00 | 85 | 1011.7 |
| 20260905120410 | 76 | 269 | 0.0 | 0.0 | 0.00 | 0.01 | 0.00 | 86 | 1011.6 |
| 20260905115410 | 76 | 269 | 0.0 | 0.9 | 0.00 | 0.01 | 0.00 | 86 | 1011.7 |
| 20260905114410 | 76 | 299 | 0.0 | 0.0 | 0.00 | 0.01 | 0.00 | 86 | 1011.5 |
| 20260905112410 | 75 | 323 | 0.0 | 0.0 | 0.00 | 0.01 | 0.00 | 88 | 1011.3 |
| 20260905110410 | 74 | 333 | 0.0 | 0.0 | 0.00 | 0.01 | 0.00 | 89 | 1011.1 |
| 20260905105410 | 73 | 338 | 0.0 | 0.0 | 0.00 | 0.01 | 0.00 | 90 | 1011.0 |
| 20260905104410 | 73 | 321 | 0.0 | 0.0 | 0.00 | 0.01 | 0.00 | 90 | 1011.1 |
| 20260905103410 | 73 | 307 | 0.0 | 3.5 | 0.00 | 0.01 | 0.00 | 90 | 1010.9 |
| 20260905102510 | 73 | 302 | 0.0 | 0.0 | 0.00 | 0.01 | 0.00 | 90 | 1010.8 |
| 20260905101410 | 73 | 302 | 0.0 | 0.0 | 0.00 | 0.01 | 0.00 | 90 | 1010.7 |
| 20260905100410 | 73 | 302 | 0.0 | 0.0 | 0.00 | 0.01 | 0.00 | 89 | 1010.7 |
| 20260905095410 | 73 | 302 | 0.0 | 0.0 | 0.00 | 0.01 | 0.00 | 88 | 1010.6 |
| 20260905094410 | 74 | 302 | 0.0 | 0.0 | 0.00 | 0.01 | 0.00 | 88 | 1010.5 |
| 20260905093410 | 74 | 302 | 0.0 | 0.9 | 0.00 | 0.01 | 0.00 | 88 | 1010.5 |
| 20260905092410 | 74 | 303 | 0.0 | 2.6 | 0.00 | 0.01 | 0.00 | 87 | 1010.5 |
| 20260905091410 | 74 | 209 | 0.0 | 0.0 | 0.00 | 0.01 | 0.00 | 88 | 1010.5 |
| 20260905090410 | 74 | 269 | 0.0 | 0.0 | 0.00 | 0.01 | 0.00 | 88 | 1010.5 |
| 20260905085410 | 74 | 269 | 0.0 | 0.0 | 0.00 | 0.01 | 0.00 | 88 | 1010.5 |
| 20260905084410 | 74 | 269 | 0.0 | 0.9 | 0.00 | 0.01 | 0.00 | 88 | 1010.5 |
| 20260905083410 | 74 | 273 | 0.0 | 2.6 | 0.00 | 0.01 | 0.00 | 88 | 1010.6 |
| 20260905082410 | 74 | 292 | 0.0 | 4.3 | 0.00 | 0.01 | 0.00 | 89 | 1010.8 |
| 20260905081410 | 74 | 254 | 0.0 | 0.0 | 0.00 | 0.01 | 0.00 | 89 | 1010.7 |
| 20260905080410 | 74 | 256 | 0.0 | 0.0 | 0.00 | 0.01 | 0.00 | 90 | 1010.8 |
| 20260905075410 | 74 | 303 | 0.0 | 0.9 | 0.00 | 0.01 | 0.00 | 90 | 1010.9 |
| 20260905074410 | 74 | 291 | 0.9 | 1.7 | 0.00 | 0.01 | 0.00 | 91 | 1010.8 |
| 20260905073410 | 74 | 279 | 0.0 | 0.9 | 0.00 | 0.01 | 0.00 | 91 | 1010.9 |
| 20260905072411 | 74 | 185 | 0.0 | 0.0 | 0.00 | 0.01 | 0.00 | 91 | 1011.0 |
| 20260905070411 | 74 | 185 | 0.0 | 0.0 | 0.00 | 0.01 | 0.00 | 91 | 1010.9 |
| 20260905065411 | 74 | 204 | 0.0 | 0.0 | 0.00 | 0.01 | 0.00 | 91 | 1011.1 |
| 20260905064441 | 74 | 207 | 0.0 | 0.0 | 0.00 | 0.01 | 0.00 | 91 | 1011.2 |
| 20260905063411 | 74 | 206 | 0.0 | 0.0 | 0.00 | 0.01 | 0.00 | 91 | 1011.3 |
| 20260905062411 | 75 | 196 | 0.0 | 1.7 | 0.00 | 0.01 | 0.00 | 90 | 1011.2 |
| 20260905061411 | 75 | 246 | 0.0 | 0.0 | 0.00 | 0.01 | 0.00 | 90 | 1011.2 |
| 20260905060411 | 75 | 246 | 0.0 | 0.0 | 0.00 | 0.03 | 0.00 | 89 | 1011.2 |
| 20260905054511 | 75 | 245 | 0.0 | 0.0 | 0.00 | 0.07 | 0.00 | 89 | 1011.5 |
| 20260905053410 | 75 | 207 | 0.0 | 0.9 | 0.00 | 0.25 | 0.00 | 89 | 1011.7 |
| 20260905052411 | 75 | 209 | 0.0 | 0.9 | 0.00 | 0.51 | 0.00 | 89 | 1011.8 |
| 20260905051411 | 75 | 223 | 0.0 | 0.9 | 0.00 | 0.83 | 0.00 | 88 | 1011.9 |
| 20260905050411 | 75 | 221 | 0.0 | 0.0 | 0.00 | 1.31 | 0.00 | 88 | 1012.0 |
| 20260905044441 | 76 | 229 | 0.0 | 0.9 | 0.00 | 1.46 | 0.00 | 88 | 1012.2 |
| 20260905043411 | 75 | 225 | 0.0 | 1.7 | 0.00 | 1.46 | 0.00 | 89 | 1012.1 |
| 20260905042411 | 76 | 278 | 0.0 | 0.0 | 0.00 | 1.46 | 0.00 | 89 | 1012.2 |
| 20260905041411 | 76 | 278 | 0.0 | 1.7 | 0.00 | 1.53 | 0.00 | 89 | 1012.3 |
| 20260905040511 | 76 | 198 | 0.0 | 0.0 | 0.00 | 1.60 | 1.60 | 89 | 1012.4 |
| 20260905034411 | 76 | 198 | 0.0 | 0.0 | 0.00 | 1.62 | 1.60 | 88 | 1012.4 |
| 20260905033411 | 76 | 198 | 0.0 | 0.0 | 0.00 | 1.62 | 1.60 | 87 | 1012.4 |
| 20260905032411 | 75 | 198 | 0.0 | 0.0 | 0.00 | 1.62 | 1.60 | 86 | 1012.3 |
| 20260905030411 | 76 | 198 | 0.0 | 0.0 | 0.00 | 1.62 | 1.60 | 87 | 1012.3 |
| 20260905024411 | 76 | 198 | 0.0 | 0.0 | 0.00 | 1.62 | 1.60 | 84 | 1012.6 |
| 20260905023411 | 76 | 198 | 0.0 | 0.0 | 0.00 | 1.62 | 1.60 | 85 | 1012.7 |
| 20260905022411 | 76 | 198 | 0.0 | 0.0 | 0.00 | 1.62 | 1.60 | 85 | 1012.8 |
| 20260905021411 | 76 | 198 | 0.0 | 0.0 | 0.00 | 1.62 | 1.60 | 85 | 1012.8 |
| 20260905020411 | 76 | 198 | 0.0 | 0.0 | 0.00 | 1.62 | 1.60 | 85 | 1012.5 |
| 20260905015411 | 76 | 198 | 0.0 | 0.0 | 0.00 | 1.62 | 1.60 | 86 | 1012.5 |
| 20260905014411 | 76 | 198 | 0.0 | 0.0 | 0.00 | 1.62 | 1.60 | 85 | 1012.3 |
| 20260905013411 | 76 | 198 | 0.0 | 0.0 | 0.00 | 1.62 | 1.60 | 85 | 1012.4 |
| 20260905012411 | 76 | 198 | 0.0 | 0.0 | 0.00 | 1.62 | 1.60 | 85 | 1012.5 |
| 20260905011411 | 77 | 198 | 0.0 | 0.0 | 0.00 | 1.62 | 1.60 | 84 | 1012.3 |
| 20260905010411 | 77 | 198 | 0.0 | 0.0 | 0.00 | 1.62 | 1.60 | 84 | 1012.1 |
| 20260905005411 | 77 | 198 | 0.0 | 0.0 | 0.00 | 1.62 | 1.60 | 83 | 1012.3 |
| 20260905004441 | 77 | 198 | 0.0 | 0.0 | 0.00 | 1.62 | 1.60 | 83 | 1012.2 |
| 20260905003411 | 77 | 199 | 0.0 | 0.9 | 0.00 | 1.62 | 1.60 | 82 | 1012.5 |
| 20260905002411 | 76 | 199 | 0.0 | 2.6 | 0.00 | 1.62 | 1.60 | 84 | 1012.3 |
| 20260905001411 | 76 | 279 | 0.0 | 0.0 | 0.00 | 1.62 | 1.60 | 85 | 1012.1 |
| 20260905000411 | 76 | 279 | 0.0 | 0.0 | 0.00 | 1.62 | 1.60 | 86 | 1011.8 |
| 20260904235411 | 76 | 279 | 0.0 | 0.0 | 0.00 | 1.62 | 1.60 | 86 | 1011.7 |
| 20260904234411 | 76 | 279 | 0.0 | 0.0 | 0.00 | 1.62 | 1.60 | 87 | 1011.7 |
| 20260904233411 | 77 | 279 | 0.0 | 0.0 | 0.00 | 1.62 | 1.60 | 86 | 1011.4 |
| 20260904232411 | 77 | 279 | 0.0 | 0.0 | 0.01 | 1.62 | 1.60 | 83 | 1011.4 |
| 20260904231411 | 78 | 279 | 0.0 | 0.0 | 0.01 | 1.62 | 1.60 | 80 | 1011.3 |
| 20260904230411 | 78 | 279 | 0.0 | 0.0 | 0.01 | 1.62 | 1.60 | 80 | 1011.5 |
| 20260904224411 | 80 | 274 | 0.0 | 0.0 | 0.01 | 1.62 | 1.60 | 78 | 1011.6 |
| 20260904223411 | 81 | 254 | 0.9 | 2.6 | 0.01 | 1.62 | 1.60 | 78 | 1012.1 |
| 20260904222411 | 82 | 260 | 0.0 | 2.6 | 0.00 | 1.61 | 1.59 | 81 | 1012.5 |
| 20260904221411 | 82 | 248 | 0.0 | 2.6 | 0.00 | 1.61 | 1.59 | 80 | 1012.6 |
| 20260904220411 | 82 | 202 | 0.0 | 0.0 | 0.00 | 1.61 | 1.59 | 82 | 1012.8 |
| 20260904215411 | 82 | 202 | 0.0 | 0.9 | 0.00 | 1.61 | 1.59 | 84 | 1012.9 |
| 20260904214411 | 83 | 202 | 0.0 | 0.0 | 0.00 | 1.61 | 1.59 | 82 | 1012.7 |
| 20260904213411 | 83 | 202 | 0.0 | 0.0 | 0.00 | 1.61 | 1.59 | 81 | 1012.7 |
| 20260904212441 | 83 | 202 | 0.0 | 0.0 | 0.00 | 1.61 | 1.59 | 83 | 1012.4 |
| 20260904211411 | 84 | 202 | 0.0 | 0.0 | 0.00 | 1.61 | 1.59 | 81 | 1012.2 |
| 20260904210411 | 84 | 202 | 0.0 | 0.0 | 0.00 | 1.61 | 1.59 | 79 | 1012.5 |
| 20260904204441 | 84 | 198 | 0.0 | 0.0 | 0.00 | 1.61 | 1.59 | 79 | 1012.2 |
| 20260904203411 | 85 | 198 | 0.0 | 0.0 | 0.00 | 1.61 | 1.59 | 80 | 1012.4 |